Leipzig Schkeuditz, Germany

8:53 AM CEST on July 26, 2017 (GMT +0200)
Leipzig-Halle

Weather History for EDDP - October, 2013

Change the Weather History Date:

Thursday, October 17, 2013

  Actual Average Record
Temperature  
Mean Temperature 52 °F -  
Max Temperature 60 °F 50 °F 68 °F (2007)
Min Temperature 43 °F 38 °F 30 °F (2003)
Degree Days  
Heating Degree Days 14    
Growing Degree Days 2 (Base 50)    
Moisture  
Dew Point 48 °F    
Average Humidity 87    
Maximum Humidity 100    
Minimum Humidity 55    
Precipitation  
Precipitation 0.08 in - - ()
Sea Level Pressure  
Sea Level Pressure 29.85 in    
Wind  
Wind Speed 13 mph ()    
Max Wind Speed 28 mph    
Max Gust Speed 37 mph    
Visibility 6.9 miles    
Events Rain    
Averages and records for this station are not official NWS values.
T = Trace of Precipitation, MM = Missing Value Source: Averaged Metar Reports

Daily Weather History Graph

Daily Weather History Graph

Search for Another Location

Airport or City:

Trip Planner

Search our weather history database for the weather conditions in past years. The results will help you decide how hot, cold, wet, or windy it might be!

Date:

Astronomy

Oct. 17, 2013 Rise Set
Actual Time 7:38 AM CEST 6:13 PM CEST
Civil Twilight 7:04 AM CEST 6:47 PM CEST
Nautical Twilight 6:25 AM CEST 7:25 PM CEST
Astronomical Twilight 5:47 AM CEST 8:04 PM CEST
Moon 5:23 PM CEST (10/17) 5:43 AM CEST (10/17)
Length of Visible Light 11h 42m
Length of Day
10h 35m
Waxing Gibbous, 97% of the Moon is Illuminated
Oct 17
Waxing Gibbous
Oct 19
Full
Oct 27
Last Quarter
Nov 3
New
Nov 10
First Quarter

Hourly Weather History & Observations

Time (CEST) Temp. Windchill Dew Point Humidity Pressure Visibility Wind Dir Wind Speed Gust Speed Precip Events Conditions
12:00 AM 45 °F - 44 °F 95% 29.96 in 9 mi South 6.7 mph - -   Mostly Cloudy
12:20 AM 46.4 °F 42.4 °F 46.4 °F 100% 29.92 in - South 8.1 mph - N/A   Clear
12:50 AM 46.4 °F 42.4 °F 46.4 °F 100% 29.92 in 6.2 mi South 8.1 mph - N/A   Mostly Cloudy
1:00 AM 45 °F - 45 °F 98% 29.96 in 9 mi South 8.9 mph - -   Mostly Cloudy
1:20 AM 44.6 °F 39.7 °F 44.6 °F 100% 29.92 in - South 9.2 mph - N/A   Clear
1:50 AM 44.6 °F 39.2 °F 44.6 °F 100% 29.92 in - South 10.4 mph - N/A   Clear
2:00 AM 45 °F - 44 °F 92% 29.94 in 9 mi South 8.9 mph - -   Partly Cloudy
2:20 AM 44.6 °F 40.2 °F 44.6 °F 100% 29.89 in - South 8.1 mph - N/A   Clear
2:50 AM 44.6 °F 40.2 °F 44.6 °F 100% 29.89 in - South 8.1 mph - N/A   Clear
3:00 AM 44 °F - 43 °F 95% 29.92 in 9 mi South 8.9 mph - -   Partly Cloudy
3:20 AM 44.6 °F 38.8 °F 44.6 °F 100% 29.89 in - South 11.5 mph - N/A   Clear
3:50 AM 44.6 °F 39.7 °F 44.6 °F 100% 29.86 in - South 9.2 mph - N/A   Clear
4:00 AM 45 °F - 44 °F 96% 29.89 in 7 mi South 8.9 mph - -   Mostly Cloudy
4:20 AM 46.4 °F 41.1 °F 44.6 °F 93% 29.86 in - South 11.5 mph - N/A   Clear
4:50 AM 46.4 °F 41.1 °F 44.6 °F 93% 29.86 in 6.2 mi SSW 11.5 mph - N/A Rain Light Rain
5:20 AM 46.4 °F 40.7 °F 46.4 °F 100% 29.86 in 5.0 mi South 12.7 mph - N/A Rain Light Rain
5:50 AM 46.4 °F 41.5 °F 46.4 °F 100% 29.86 in 3.1 mi South 10.4 mph - N/A Rain Light Rain
6:20 AM 46.4 °F 41.5 °F 46.4 °F 100% 29.83 in 3.1 mi South 10.4 mph - N/A Rain Light Rain
6:50 AM 48.2 °F - 48.2 °F 100% 29.83 in 6.2 mi South 11.5 mph - N/A   Overcast
7:00 AM 48 °F - 48 °F 98% 29.86 in 9 mi SSW 11.2 mph - - Rain Light Rain
7:20 AM 48.2 °F - 48.2 °F 100% 29.83 in 6.2 mi SSW 12.7 mph - N/A   Mostly Cloudy
7:50 AM 48.2 °F - 48.2 °F 100% 29.83 in 6.2 mi SSW 15.0 mph - N/A   Mostly Cloudy
8:00 AM 49 °F - 47 °F 90% 29.86 in 12 mi SSW 13.4 mph - -   Partly Cloudy
8:20 AM 48.2 °F - 48.2 °F 100% 29.86 in - SSW 13.8 mph - N/A   Clear
8:50 AM 50.0 °F - 48.2 °F 94% 29.86 in - SW 15.0 mph - N/A   Clear
9:00 AM 49 °F - 47 °F 92% 29.88 in 22 mi SW 13.4 mph - -   Mostly Cloudy
9:20 AM 50.0 °F - 48.2 °F 94% 29.86 in - SW 16.1 mph - N/A   Clear
9:50 AM 51.8 °F - 50.0 °F 94% 29.86 in 6.2 mi WSW 15.0 mph 26.5 mph N/A   Mostly Cloudy
10:00 AM 52 °F - 49 °F 84% 29.89 in 22 mi WSW 17.9 mph - -   Mostly Cloudy
10:20 AM 51.8 °F - 50.0 °F 94% 29.89 in 6.2 mi SW 19.6 mph - N/A   Mostly Cloudy
10:50 AM 55.4 °F - 50.0 °F 82% 29.89 in 6.2 mi SW 18.4 mph - N/A   Mostly Cloudy
11:20 AM 55.4 °F - 50.0 °F 82% 29.86 in 6.2 mi SW 21.9 mph - N/A   Mostly Cloudy
11:50 AM 57.2 °F - 51.8 °F 82% 29.86 in 6.2 mi SW 23.0 mph - N/A   Scattered Clouds
12:00 PM 56 °F - 50 °F 73% 29.88 in 22 mi SW 22.4 mph - -   Mostly Cloudy
12:20 PM 57.2 °F - 50.0 °F 77% 29.86 in 6.2 mi WSW 24.2 mph - N/A   Scattered Clouds
12:50 PM 59.0 °F - 51.8 °F 77% 29.86 in 6.2 mi WSW 25.3 mph 36.8 mph N/A   Scattered Clouds
1:00 PM 58 °F - 51 °F 69% 29.86 in 22 mi WSW 24.6 mph - -   Mostly Cloudy
1:20 PM 59.0 °F - 51.8 °F 77% 29.86 in 6.2 mi WSW 27.6 mph - N/A   Scattered Clouds
1:50 PM 60.8 °F - 51.8 °F 72% 29.83 in 6.2 mi WSW 24.2 mph 36.8 mph N/A   Scattered Clouds
2:00 PM 60 °F - 50 °F 61% 29.85 in 25 mi WSW 24.6 mph - -   Partly Cloudy
2:20 PM 59.0 °F - 50.0 °F 72% 29.83 in 6.2 mi WSW 24.2 mph 35.7 mph N/A   Mostly Cloudy
3:00 PM 59 °F - 49 °F 60% 29.84 in 28 mi SW 20.1 mph - -   Mostly Cloudy
3:20 PM 59.0 °F - 50.0 °F 72% 29.83 in 6.2 mi SW 20.7 mph - N/A   Scattered Clouds
3:50 PM 60.8 °F - 50.0 °F 68% 29.83 in 6.2 mi SW 20.7 mph - N/A   Mostly Cloudy
4:00 PM 61 °F - 49 °F 55% 29.82 in 25 mi SW 20.1 mph - -   Mostly Cloudy
4:20 PM 60.8 °F - 50.0 °F 68% 29.80 in 6.2 mi SW 20.7 mph 32.2 mph N/A   Mostly Cloudy
4:50 PM 59.0 °F - 50.0 °F 72% 29.80 in 6.2 mi SW 19.6 mph - N/A   Mostly Cloudy
5:20 PM 57.2 °F - 50.0 °F 77% 29.80 in 6.2 mi SW 21.9 mph - N/A   Scattered Clouds
5:50 PM 55.4 °F - 51.8 °F 88% 29.80 in 6.2 mi SW 19.6 mph - N/A Rain Light Rain Showers
6:00 PM 55 °F - 51 °F 81% 29.81 in 9 mi SW 20.1 mph - - Rain Light Rain Showers
6:20 PM 53.6 °F - 51.8 °F 94% 29.80 in 5.0 mi SW 19.6 mph - N/A Rain Light Rain Showers
6:50 PM 53.6 °F - 51.8 °F 94% 29.80 in 6.2 mi SW 13.8 mph - N/A   Scattered Clouds
7:00 PM 54 °F - 51 °F 86% 29.82 in 16 mi SW 13.4 mph - - Rain Light Rain Showers
7:20 PM 53.6 °F - 51.8 °F 94% 29.80 in 6.2 mi WSW 15.0 mph - N/A   Scattered Clouds
7:50 PM 53.6 °F - 51.8 °F 94% 29.80 in 6.2 mi SW 20.7 mph - N/A   Scattered Clouds
8:00 PM 54 °F - 51 °F 84% 29.81 in 37 mi SW 20.1 mph - -   Partly Cloudy
8:20 PM 53.6 °F - 51.8 °F 94% 29.80 in - SW 21.9 mph - N/A   Clear
8:50 PM 53.6 °F - 50.0 °F 88% 29.80 in - WSW 19.6 mph - N/A   Clear
9:00 PM 53 °F - 50 °F 85% 29.82 in 37 mi WSW 20.1 mph - -   Scattered Clouds
9:20 PM 53.6 °F - 50.0 °F 88% 29.80 in - WSW 23.0 mph - N/A   Clear
9:50 PM 51.8 °F - 50.0 °F 94% 29.83 in - WSW 20.7 mph - N/A   Clear
10:00 PM 52 °F - 48 °F 82% 29.83 in 37 mi WSW 17.9 mph - -   Scattered Clouds
10:20 PM 53.6 °F - 48.2 °F 82% 29.83 in - WSW 19.6 mph - N/A   Clear
10:50 PM 53.6 °F - 48.2 °F 82% 29.83 in - WSW 18.4 mph - N/A   Clear
11:20 PM 53.6 °F - 48.2 °F 82% 29.86 in - West 23.0 mph - N/A   Clear
11:50 PM 53.6 °F - 46.4 °F 77% 29.86 in - West 21.9 mph - N/A   Clear